Weather History for Branson, MO

Change the Weather History Date:

Thursday, May 23, 2013

  Actual Average (KHRO) Record (KHRO)
Temperature  
Mean Temperature 64 °F 68 °F  
Max Temperature 73 °F 78 °F 92 °F (1926)
Min Temperature 55 °F 57 °F 36 °F (1963)
Degree Days  
Heating Degree Days 1 2  
Month to date heating degree days 68  
Since 1 July heating degree days 3989  
Cooling Degree Days 0 4  
Month to date cooling degree days 65  
Year to date cooling degree days 102  
Growing Degree Days 14 (Base 50)    
Moisture  
Dew Point 55 °F    
Average Humidity 80    
Maximum Humidity 94    
Minimum Humidity 53    
Precipitation  
Precipitation 0.00 in 0.14 in 2.50 in (1957)
Month to date precipitation 3.60  
Year to date precipitation 16.91  
Snow  
Snow 0.00 in 0.00 in - ()
Month to date snowfall 0.0  
Since 1 July snowfall 11.5  
Snow Depth -    
Sea Level Pressure  
Sea Level Pressure 30.07 in    
Wind  
Wind Speed 4 mph (WNW)    
Max Wind Speed 12 mph    
Max Gust Speed -    
Visibility 10 miles    
Events      
T = Trace of Precipitation, MM = Missing Value Source: NWS Daily Summary

Daily Weather History Graph

Daily Weather History Graph

Search for Another Location

Airport:

Trip Planner

Search our weather history database for the weather conditions in past years. The results will help you decide how hot, cold, wet, or windy it might be!

Date:

Astronomy

May. 23, 2013 Rise Set
Actual Time 6:00 AM CDT 8:19 PM CDT
Civil Twilight 5:30 AM CDT 8:48 PM CDT
Nautical Twilight 4:54 AM CDT 9:25 PM CDT
Astronomical Twilight 4:15 AM CDT 10:04 PM CDT
Moon 6:54 PM CDT 4:42 AM CDT
Length of Visible Light 15h 18m
Length of Day
14h 19m
Waxing Gibbous, 97% of the Moon is Illuminated
May 23
Waxing Gibbous
May 24
Full
May 31
Last Quarter
Jun 8
New
Jun 16
First Quarter

Hourly Weather History & Observations

Time (CDT) Temp. Dew Point Humidity Pressure Visibility Wind Dir Wind Speed Gust Speed Precip Events Conditions
12:15 AM 59.0 °F 55.4 °F 88% 29.97 in 10.0 mi SW 3.5 mph - N/A   Overcast
12:35 AM 60.8 °F 55.4 °F 82% 29.97 in 10.0 mi SW 3.5 mph - N/A   Overcast
12:55 AM 60.8 °F 55.4 °F 82% 29.97 in 10.0 mi SSW 3.5 mph - N/A   Overcast
1:15 AM 59.0 °F 55.4 °F 88% 29.97 in 10.0 mi SW 3.5 mph - N/A   Mostly Cloudy
1:35 AM 59.0 °F 55.4 °F 88% 29.97 in 10.0 mi SW 3.5 mph - N/A   Partly Cloudy
1:55 AM 59.0 °F 55.4 °F 88% 29.98 in 10.0 mi WSW 3.5 mph - N/A   Clear
2:15 AM 59.0 °F 55.4 °F 88% 29.98 in 10.0 mi WSW 3.5 mph - N/A   Clear
2:35 AM 57.2 °F 55.4 °F 94% 29.97 in 10.0 mi Calm Calm - N/A   Clear
2:55 AM 57.2 °F 55.4 °F 94% 29.98 in 10.0 mi Calm Calm - N/A   Clear
3:15 AM 57.2 °F 55.4 °F 94% 29.98 in 10.0 mi West 3.5 mph - N/A   Clear
3:35 AM 57.2 °F 55.4 °F 94% 29.98 in 10.0 mi SW 4.6 mph - N/A   Clear
3:55 AM 57.2 °F 55.4 °F 94% 29.99 in 10.0 mi SW 4.6 mph - N/A   Clear
4:15 AM 57.2 °F 55.4 °F 94% 29.99 in 10.0 mi SW 4.6 mph - N/A   Clear
4:35 AM 57.2 °F 55.4 °F 94% 30.00 in 10.0 mi SW 4.6 mph - N/A   Clear
4:55 AM 57.2 °F 55.4 °F 94% 30.00 in 10.0 mi SW 3.5 mph - N/A   Clear
5:15 AM 57.2 °F 55.4 °F 94% 30.00 in 10.0 mi SW 3.5 mph - N/A   Clear
5:35 AM 57.2 °F 55.4 °F 94% 30.01 in 10.0 mi SW 3.5 mph - N/A   Clear
5:55 AM 57.2 °F 55.4 °F 94% 30.02 in 10.0 mi WSW 3.5 mph - N/A   Clear
6:15 AM 55.4 °F 53.6 °F 94% 30.02 in 10.0 mi Calm Calm - N/A   Clear
6:35 AM 57.2 °F 55.4 °F 94% 30.02 in 10.0 mi Calm Calm - N/A   Clear
6:49 AM 57.2 °F 55.4 °F 94% 30.03 in 10.0 mi Calm Calm - N/A   Partly Cloudy
7:45 AM 60.8 °F 57.2 °F 88% 30.06 in 10.0 mi Calm Calm - N/A   Partly Cloudy
8:45 AM 62.6 °F 55.4 °F 77% 30.07 in 10.0 mi North 9.2 mph - N/A   Scattered Clouds
9:45 AM 64.4 °F 53.6 °F 68% 30.11 in 10.0 mi NW 9.2 mph - N/A   Mostly Cloudy
10:48 AM 66.2 °F 53.6 °F 64% 30.12 in 10.0 mi WNW 4.6 mph - N/A   Mostly Cloudy
11:45 AM 68.0 °F 53.6 °F 60% 30.12 in 10.0 mi NW 6.9 mph - N/A   Mostly Cloudy
12:45 PM 71.6 °F 55.4 °F 57% 30.13 in 10.0 mi NW 5.8 mph - N/A   Mostly Cloudy
1:45 PM 73.4 °F 55.4 °F 53% 30.12 in 10.0 mi WNW 6.9 mph - N/A   Mostly Cloudy
2:45 PM 73.4 °F 55.4 °F 53% 30.12 in 10.0 mi WNW 4.6 mph - N/A   Mostly Cloudy
3:55 PM 73.4 °F 57.2 °F 57% 30.11 in 10.0 mi NW 9.2 mph - N/A   Mostly Cloudy
4:45 PM 73.4 °F 57.2 °F 57% 30.09 in 10.0 mi NNW 11.5 mph - N/A   Mostly Cloudy
5:45 PM 73.4 °F 55.4 °F 53% 30.10 in 10.0 mi North 8.1 mph - N/A   Mostly Cloudy
6:45 PM 71.6 °F 55.4 °F 57% 30.11 in 10.0 mi North 6.9 mph - N/A   Mostly Cloudy
7:45 PM 68.0 °F 55.4 °F 64% 30.11 in 10.0 mi North 4.6 mph - N/A   Mostly Cloudy
8:45 PM 64.4 °F 55.4 °F 73% 30.13 in 10.0 mi NNE 4.6 mph - N/A   Mostly Cloudy
9:15 PM 64.4 °F 55.4 °F 73% 30.14 in 10.0 mi NNE 3.5 mph - N/A   Clear
9:35 PM 62.6 °F 55.4 °F 77% 30.15 in 10.0 mi NE 4.6 mph - N/A   Clear
9:55 PM 62.6 °F 55.4 °F 77% 30.16 in 10.0 mi NE 6.9 mph - N/A   Clear
10:15 PM 62.6 °F 53.6 °F 72% 30.17 in 10.0 mi NE 5.8 mph - N/A   Clear
10:35 PM 60.8 °F 53.6 °F 77% 30.18 in 10.0 mi ENE 4.6 mph - N/A   Clear
10:55 PM 60.8 °F 53.6 °F 77% 30.19 in 10.0 mi ENE 6.9 mph - N/A   Clear
11:15 PM 59.0 °F 53.6 °F 82% 30.19 in 10.0 mi East 5.8 mph - N/A   Clear
11:35 PM 59.0 °F 53.6 °F 82% 30.20 in 10.0 mi ENE 5.8 mph - N/A   Clear
11:55 PM 59.0 °F 53.6 °F 82% 30.21 in 10.0 mi ENE 5.8 mph - N/A   Clear